SCP
-0 -0 0 0 0 0 -0 -0 0 -0 -0 -0 -0 -0 -0 0 0 0 0 0 0 0 0 0 0 0 0 0 0 0 0 0 0 0 0 0 0 0 0 0 0 0 0 0 0 0 0 0 0
0 0 0 0 -0 0 -0 -0 -0 -0 -0 -0 -0 -0 -0 0 0 0 0 0 0 0 0 0 0 0 0 0 0 0 0 0 0 0 0 0 0 0 0 0 0 0 0 0 0 0 0 0 0
0 0 0 0 0 0 -0 -0 -0 -0 -0 0 -0 -0 0 0 0 0 0 0 0 0 0 0 0 0 0 0 0 0 0 0 0 0 0 0 0 0 0 0 0 0 0 0 0 0 0 0 0
0 0 0 0 -0 -0 -0 -0 -0 -0 -0 0 -0 0 0 0 0 0 0 0 0 0 0 0 0 0 0 0 0 0 0 0 0 0 0 0 0 0 0 0 0 0 0 0 0 0 0 0 0
0 0 0 0 -0 -0 -0 -0 0 -0 0 0 0 0 0 0 0 0 0 0 0 0 0 0 0 0 0 0 0 0 0 0 0 0 0 0 0 0 0 0 0 0 0 0 0 0 0 0 0
0 0 0 0 0 -0 -0 -0 -0 0 0 0 0 0 0 0 0 0 0 0 0 0 0 0 0 0 0 0 0 0 0 0 0 0 0 0 0 0 0 0 0 0 0 0 0 0 0 0 0
0 0 0 0 0 -0 -0 0 -0 0 0 0 0 0 0 0 0 0 0 0 0 0 0 0 0 0 0 0 0 0 0 0 0 0 0 0 0 0 0 0 0 0 0 0 0 0 0 0 0
0 0 0 0 0 0 0 0 0 0 0 0 0 0 0 0 0 0 0 0 0 0 0 0 0 0 0 0 0 0 0 0 0 0 0 0 0 0 0 0 0 0 0 0 0 0 0 0 0
0 0 0 0 -0 0 0 0 0 0 0 0 0 0 0 0 0 0 0 0 0 0 0 0 0 0 0 0 0 0 0 0 0 0 0 0 0 0 0 0 0 0 0 0 0 0 0 0 0
0 0 0 -0 0 0 0 0 0 0 0 0 0 0 0 0 0 0 0 0 0 0 0 0 0 0 0 0 0 0 0 0 0 0 0 0 0 0 0 0 0 0 0 0 0 0 0 0 0
0 0 0 0 0 0 0 0 0 0 0 0 0 0 0 0 0 0 0 0 0 0 0 0 0 0 0 0 0 0 0 0 0 0 0 0 0 0 0 0 0 0 0 0 0 0 0 0 0
0 0 0 0 0 0 0 0 0 0 0 0 0 0 0 0 0 0 0 0 0 0 0 0 0 0 0 0 0 0 0 0 0 0 0 0 0 0 0 0 0 0 0 0 0 0 0 0 0
0 0 0 0 0 0 0 0 0 0 0 0 0 0 0 0 0 0 0 0 0 0 0 0 0 0 0 0 0 0 0 0 0 0 0 0 0 0 0 0 0 0 0 0 0 0 0 0 0
0 0 0 0 0 0 0 0 0 0 0 0 0 0 0 0 0 0 0 0 0 0 0 0 0 0 0 0 0 0 0 0 0 0 0 0 0 0 0 0 0 0 0 0 0 0 0 0 0
-0 0 0 0 0 0 -0 -0 -0 0 0 0 0 0 0 0 0 0 0 0 0 0 0 0 0 0 0 0 0 0 0 0 0 0 0 0 0 0 0 0 0 0 0 0 0 0 0 0 0
-0 -0 0 0 0 0 0 -0 0 0 0 0 0 0 0 0 0 0 0 0 0 0 0 0 0 0 0 0 0 0 0 0 0 0 0 0 0 0 0 0 0 0 0 0 0 0 0 0 0
-0 -0 0 0 0 0 0 0 0 0 0 0 0 0 0 0 0 0 0 0 0 0 0 0 0 0 0 0 0 0 0 0 0 0 0 0 0 0 0 0 0 0 0 0 0 0 0 0 0
0 0 0 0 0 0 0 -0 0 0 0 0 0 0 0 0 0 0 0 0 0 0 0 0 0 0 0 0 0 0 0 0 0 0 0 0 0 0 0 0 0 0 0 0 0 0 0 0 0
0 0 0 0 -0 0 0 0 0 0 0 0 0 0 0 0 0 0 0 0 0 0 0 0 0 0 0 0 0 0 0 0 0 0 0 0 0 0 0 0 0 0 0 0 0 0 0 0 0
0 0 0 -0 -0 -0 0 0 0 0 0 0 0 0 0 0 0 0 0 0 0 0 0 0 0 0 0 0 0 0 0 0 0 0 0 0 0 0 0 0 0 0 0 0 0 0 0 0 0
0 0 0 0 0 0 0 0 0 0 0 0 0 0 0 0 0 0 0 0 0 0 0 0 0 0 0 0 0 0 0 0 0 0 0 0 0 0 0 0 0 0 0 0 0 0 0 0 0
0 0 0 0 -0 0 0 0 0 0 0 0 0 0 0 0 0 0 0 0 0 0 0 0 0 0 0 0 0 0 0 0 0 0 0 0 0 0 0 0 0 0 0 0 0 0 0 0 0
0 0 0 0 0 0 0 0 0 0 0 0 0 0 0 0 0 0 0 0 0 0 0 0 0 0 0 0 0 0 0 0 0 0 0 0 0 0 0 0 0 0 0 0 0 0 0 0 0
0 0 0 0 0 0 0 0 0 0 0 0 0 0 0 0 0 0 0 0 0 0 0 0 0 0 0 0 0 0 0 0 0 0 0 0 0 0 0 0 0 0 0 0 0 0 0 0 0
0 0 -0 -0 -0 0 0 0 -0 0 0 0 0 0 0 0 0 0 0 0 0 0 0 0 0 0 0 0 0 0 0 0 0 0 0 0 0 0 0 0 0 0 0 0 0 0 0 0 0
0 0 -0 -0 -0 0 0 0 0 0 0 0 0 0 0 0 0 0 0 0 0 0 0 0 0 0 0 0 0 0 0 0 0 0 0 0 0 0 0 0 0 0 0 0 0 0 0 0 0
0 0 0 0 0 0 0 0 0 0 0 0 0 0 0 0 0 0 0 0 0 0 0 0 0 0 0 0 0 0 0 0 0 0 0 0 0 0 0 0 0 0 0 0 0 0 0 0 0
0 0 0 0 0 0 0 0 0 0 0 0 0 0 0 0 0 0 0 0 0 0 0 0 0 0 0 0 0 0 0 0 0 0 0 0 0 0 0 0 0 0 0 0 0 0 0 0 0
0 0 0 0 0 0 0 0 0 0 0 0 0 0 0 0 0 0 0 0 0 0 0 0 0 0 0 0 0 0 0 0 0 0 0 0 0 0 0 0 0 0 0 0 0 0 0 0 0
0 0 0 0 0 0 0 0 0 0 0 0 0 0 0 0 0 0 0 0 0 0 0 0 0 0 0 0 0 0 0 0 0 0 0 0 0 0 0 0 0 0 0 0 0 0 0 0 0
Wind_Speed_500mb
6 7 1 3 5 9 8 11 4 15 14 29 27 25 27 30 9 7 3 2 8 5 11 12 18 18 16 16 14 12 9 8 8 13 20 26 27 28 29 29 28 28 28 29 31 32 31 30 28
4 1 1 11 2 5 6 8 27 23 24 15 21 22 22 10 15 7 7 6 9 11 8 13 18 21 19 18 17 16 18 19 22 24 25 26 28 29 32 33 34 34 33 32 32 33 33 33 32
1 3 7 5 9 2 9 24 22 20 14 12 14 26 12 6 10 5 5 6 11 15 12 12 15 16 18 18 19 20 19 21 24 27 30 33 35 38 39 40 40 40 39 37 35 35 35 34 34
0 4 10 4 19 17 21 19 27 21 19 16 26 19 13 6 4 7 8 3 9 7 11 16 16 16 19 22 23 25 26 27 29 32 35 36 37 37 38 39 39 39 39 39 40 40 40 40 40
7 9 1 11 17 14 17 15 5 15 13 17 4 15 10 4 9 11 8 2 6 11 13 15 18 20 24 27 30 31 32 32 33 35 36 35 35 37 38 38 38 38 38 38 39 41 42 43 44
8 8 7 7 11 12 14 16 18 21 21 10 24 17 7 10 10 9 4 8 11 14 16 20 25 30 35 38 38 37 36 34 34 32 32 33 35 36 37 39 41 42 42 42 42 42 44 44 45
8 7 10 18 13 11 10 10 29 12 10 12 11 7 12 16 17 14 10 12 16 19 23 27 32 36 38 40 35 32 32 31 31 31 32 32 33 33 35 37 39 41 43 44 44 44 45 46 46
6 4 10 9 12 8 6 7 8 16 11 3 5 6 11 29 19 11 13 19 14 23 28 31 33 30 27 29 35 35 31 31 31 32 32 32 33 34 39 39 40 41 43 45 46 48 48 48 49
10 4 8 10 12 8 5 2 4 6 7 1 3 4 12 16 13 11 14 8 15 25 33 28 27 28 29 27 31 31 32 30 33 32 30 32 33 35 38 40 42 44 44 43 41 44 47 49 47
18 7 11 13 14 10 8 8 6 4 11 8 5 2 12 11 7 4 10 19 18 24 27 29 29 30 29 30 29 28 28 27 27 36 33 32 31 33 34 35 37 41 43 45 44 48 49 48 50
15 7 11 12 5 9 6 4 3 8 11 17 16 20 15 11 11 14 11 16 20 22 28 30 30 31 31 29 28 27 27 25 27 31 29 30 32 34 37 41 44 47 48 50 52 54 56 58 58
11 12 10 1 3 5 4 9 9 21 8 10 15 14 18 14 16 19 18 25 25 26 27 31 30 30 31 29 27 25 24 25 27 32 33 36 40 43 46 50 53 55 55 59 60 62 65 65 64
11 6 8 6 7 5 13 16 13 27 24 25 16 20 16 19 27 31 27 25 23 24 27 29 32 31 31 30 26 25 25 27 29 34 38 41 45 48 52 54 57 59 61 64 66 70 71 71 70
13 17 9 5 5 6 9 11 3 12 29 23 22 21 22 25 24 24 23 23 24 27 29 30 33 32 31 29 26 27 28 31 33 38 41 46 48 53 58 61 64 66 67 69 72 75 76 77 76
12 4 8 3 7 5 15 14 21 36 27 22 31 26 27 30 35 27 29 28 25 30 32 31 32 33 30 30 30 31 36 35 39 41 46 51 55 60 63 64 64 66 70 73 76 78 79 79 79
3 3 6 2 11 3 6 17 16 33 31 31 34 35 36 32 30 27 33 28 31 31 32 34 32 33 33 33 33 35 37 41 42 48 52 56 59 61 65 66 69 73 75 77 79 79 80 80 83
1 6 9 5 3 6 11 18 9 20 27 34 38 41 37 35 38 33 35 31 32 33 34 33 34 37 34 36 37 36 37 43 49 52 56 62 64 63 69 72 77 77 75 75 74 74 73 80 83
8 8 11 13 4 5 18 44 35 51 56 44 36 35 43 41 37 35 39 37 33 33 33 33 35 37 39 39 41 42 43 46 51 52 60 61 66 72 76 80 82 78 77 75 73 74 76 74 71
12 13 17 14 7 13 16 36 39 42 44 38 39 37 36 38 31 32 45 39 36 33 32 34 34 37 40 44 47 50 55 56 60 61 61 56 71 78 82 86 84 80 77 75 72 70 70 66 70
12 14 13 11 5 12 18 44 33 3 5 11 12 32 28 27 28 37 41 38 36 29 31 36 34 40 41 45 49 50 52 58 62 61 55 69 77 80 82 84 80 78 80 77 72 67 67 66 58
2 5 8 11 23 10 19 17 6 1 6 9 13 9 15 15 26 31 39 37 31 32 33 35 40 39 42 45 49 53 59 64 67 68 75 77 76 79 81 75 73 78 69 75 72 63 61 65 59
8 11 12 16 12 6 12 9 13 7 5 1 6 7 11 15 19 26 28 31 32 30 40 42 40 39 38 44 53 56 60 63 65 70 74 76 77 76 72 64 76 72 70 69 68 64 66 66 66
6 10 8 5 5 11 5 5 15 1 3 9 8 1 6 13 17 20 24 27 26 33 38 41 36 36 38 45 51 55 58 62 69 72 78 79 81 70 70 75 66 67 66 68 69 75 67 65 70
18 8 4 1 3 5 5 6 12 4 3 6 11 11 8 7 10 13 16 21 28 35 37 34 29 32 42 48 51 54 60 67 71 77 77 81 76 76 69 64 64 64 69 69 68 72 72 74 72
7 8 8 10 7 9 6 4 20 13 9 8 12 13 12 16 10 10 13 18 22 23 16 20 26 40 47 49 53 59 63 67 71 73 74 75 79 72 69 67 74 70 71 73 74 73 74 72 71
6 3 7 7 6 10 2 12 12 6 8 9 8 11 15 20 17 10 14 20 22 22 27 33 37 42 46 52 57 61 64 66 69 70 73 73 71 69 71 71 75 78 73 70 71 77 76 76 74
3 2 2 1 4 5 8 13 14 9 12 16 15 14 16 9 15 21 23 21 23 25 26 30 37 43 50 55 60 62 63 65 67 71 69 66 68 70 73 81 72 72 75 74 73 72 71 79 77
2 3 5 3 12 13 10 9 11 6 2 8 13 8 8 16 26 27 23 20 17 19 25 32 39 47 50 54 58 62 66 69 71 73 69 70 70 76 78 74 74 75 79 77 77 80 78 77 78
1 2 5 1 5 7 10 12 9 7 10 10 2 2 16 26 26 15 11 12 14 23 30 38 44 47 51 55 62 67 72 73 71 73 74 76 82 79 79 87 81 70 73 71 71 74 76 71 73
1 3 9 7 10 9 5 21 4 10 17 10 2 9 22 17 10 10 11 14 20 29 38 43 44 47 53 61 66 70 71 70 73 76 80 80 82 82 73 72 74 69 70 70 69 69 67 69 71
Wind_Direction_500mb
294 315 181 320 247 58 6 157 320 68 74 61 57 73 95 45 14 76 200 35 73 36 55 22 33 18 25 11 3 1 9 3 13 338 324 330 334 335 330 330 328 325 322 320 320 319 318 317 315
304 343 17 271 141 118 197 166 69 61 85 109 51 84 42 77 64 71 157 50 84 97 44 9 14 7 12 18 13 2 351 342 334 334 332 327 323 320 319 319 316 315 314 312 311 309 310 308 308
28 31 305 270 54 77 107 86 84 78 59 39 117 65 61 31 40 90 88 97 82 58 26 22 17 2 351 352 351 349 339 328 321 317 315 312 311 312 313 313 313 310 308 307 307 307 305 303 302
289 291 266 357 97 30 77 51 107 125 103 67 103 91 79 69 141 155 143 124 67 28 2 348 332 342 337 335 335 331 324 320 315 311 310 309 309 310 311 312 314 311 308 307 307 304 302 301 300
350 273 90 60 70 74 51 59 37 82 73 34 338 112 88 94 138 146 157 187 346 354 329 320 328 333 328 327 324 319 314 312 311 311 311 313 316 317 318 319 318 316 314 312 310 309 308 306 304
275 292 115 138 96 90 77 22 60 65 103 37 96 109 125 196 168 176 225 295 329 323 320 323 326 324 323 322 323 322 322 319 317 318 317 315 315 315 314 315 316 316 315 315 313 310 308 306 304
314 2 70 97 114 118 70 2 25 29 103 53 359 97 167 197 205 232 272 324 323 319 315 314 318 324 328 330 333 330 325 321 319 319 319 321 322 317 315 315 315 314 313 312 311 310 309 307 306
360 49 81 93 177 77 48 66 11 28 68 54 22 173 184 213 214 247 292 313 326 312 303 311 319 324 327 328 326 327 326 322 318 315 315 318 319 321 319 318 316 314 313 312 311 309 307 306 305
8 77 106 17 29 105 149 229 44 47 113 84 292 254 181 187 209 240 276 327 284 290 303 309 313 321 331 329 331 332 330 330 324 318 324 320 320 315 320 321 323 322 323 320 321 315 315 313 311
36 48 38 9 4 68 68 331 72 231 162 180 147 219 202 187 199 229 242 237 279 295 306 320 321 321 327 327 328 323 319 321 314 317 327 328 328 327 329 330 327 328 327 324 319 320 318 316 310
11 62 129 45 14 13 40 227 218 269 237 231 209 189 181 195 203 223 239 269 274 291 304 313 319 322 326 325 323 321 317 321 317 321 332 334 331 331 330 329 328 326 323 319 317 316 316 313 310
101 43 51 32 328 334 340 325 260 236 271 219 184 178 203 207 227 224 225 244 271 290 300 310 319 322 326 327 325 324 325 328 329 326 330 330 330 330 329 329 327 325 321 318 318 316 313 309 307
88 150 74 76 52 353 314 271 274 264 247 250 234 223 210 213 224 243 245 265 279 286 297 307 314 322 324 323 323 322 323 324 322 320 324 325 326 327 326 326 325 324 321 320 319 318 316 313 309
108 102 109 75 14 316 322 281 308 281 220 243 226 228 217 221 229 239 264 262 273 287 299 306 310 314 315 316 318 317 316 317 319 319 322 321 323 324 325 325 325 324 321 320 318 318 315 311 308
150 87 183 124 347 331 334 277 228 247 215 221 224 232 225 230 238 242 239 263 277 287 293 302 307 310 312 312 312 314 315 318 318 319 319 319 322 323 323 321 321 320 317 316 315 314 311 307 305
213 282 299 75 345 191 35 273 341 199 203 226 230 227 226 235 249 249 259 263 275 284 293 300 305 306 309 307 312 316 318 318 319 318 318 318 320 320 321 322 323 323 319 318 317 315 312 307 305
47 298 339 231 138 299 212 273 206 206 218 229 233 234 226 231 240 258 260 264 273 282 292 298 303 304 307 310 311 313 318 316 316 319 317 317 317 320 322 322 322 321 316 314 313 309 305 303 303
330 328 323 301 87 320 273 266 269 263 247 230 234 245 234 228 237 263 266 268 272 283 291 295 299 304 307 310 312 313 316 311 314 319 319 320 318 320 320 320 319 317 314 313 311 307 308 305 304
292 300 294 293 44 340 260 274 284 277 267 220 230 237 250 230 239 248 257 271 271 282 289 293 300 298 305 310 310 313 315 319 323 324 324 313 315 317 320 321 321 319 316 313 310 308 307 302 301
285 298 302 315 73 346 305 298 289 348 325 323 304 223 245 239 230 247 260 277 275 280 283 291 294 297 306 309 311 314 318 319 320 322 311 311 317 319 319 321 317 314 313 312 312 308 305 302 304
282 310 354 288 322 259 300 286 160 233 311 301 308 274 264 261 243 249 265 282 284 290 295 283 296 300 305 307 310 315 317 317 321 318 318 320 317 317 317 315 310 309 306 305 307 305 303 303 298
306 31 338 313 4 307 30 285 316 158 191 176 346 300 264 256 259 246 257 273 282 282 279 288 296 304 313 313 316 320 320 319 318 317 317 316 317 313 317 303 305 304 301 301 301 303 300 301 300
303 340 302 358 348 358 17 53 272 109 143 95 104 100 291 272 257 267 270 264 269 269 275 290 300 306 310 314 315 317 315 315 316 316 317 317 316 315 310 311 306 303 301 298 298 300 297 293 294
303 328 230 290 201 2 251 91 284 32 23 121 124 88 9 345 284 268 271 273 276 286 299 310 313 313 309 312 316 317 317 318 317 318 317 318 315 314 312 311 310 302 299 300 298 297 293 292 291
295 13 341 356 359 233 303 343 250 284 59 69 71 57 6 358 8 342 317 317 307 320 306 295 298 299 308 315 316 317 318 316 317 319 318 316 315 313 313 308 307 305 302 301 299 299 298 293 288
352 96 123 286 298 280 311 231 257 130 103 65 68 48 47 42 36 3 327 301 294 284 285 294 302 311 319 320 320 319 320 320 321 321 317 315 314 312 311 309 306 304 304 304 303 301 298 296 291
337 67 40 245 85 40 237 280 299 53 43 72 73 66 74 23 350 348 320 298 296 305 310 317 321 322 322 322 322 324 325 326 323 322 319 315 313 312 309 307 310 308 309 307 306 302 299 296 296
94 326 34 343 334 310 282 274 245 275 56 343 63 40 3 330 333 332 319 319 328 322 317 322 324 323 324 325 328 330 330 328 325 320 318 312 312 308 311 310 308 304 304 306 304 303 303 301 297
47 34 40 125 156 226 298 257 226 180 180 167 269 337 304 322 324 330 339 324 318 310 325 328 328 329 332 333 334 332 331 329 326 325 323 319 317 315 309 307 313 313 310 311 307 304 301 302 301
317 201 188 145 259 228 195 272 4 175 171 150 347 296 313 314 332 333 308 317 318 329 334 335 336 338 338 336 332 333 332 331 331 331 328 328 323 323 322 317 314 317 315 315 315 314 313 308 304
Wind_Speed_850mb
6 7 1 3 5 9 8 11 4 15 14 29 27 25 27 30 9 7 3 2 8 5 11 12 18 18 16 16 14 12 9 8 8 13 20 26 27 28 29 29 28 28 28 29 31 32 31 30 28
4 1 1 11 2 5 6 8 27 23 24 15 21 22 22 10 15 7 7 6 9 11 8 13 18 21 19 18 17 16 18 19 22 24 25 26 28 29 32 33 34 34 33 32 32 33 33 33 32
1 3 7 5 9 2 9 24 22 20 14 12 14 26 12 6 10 5 5 6 11 15 12 12 15 16 18 18 19 20 19 21 24 27 30 33 35 38 39 40 40 40 39 37 35 35 35 34 34
0 4 10 4 19 17 21 19 27 21 19 16 26 19 13 6 4 7 8 3 9 7 11 16 16 16 19 22 23 25 26 27 29 32 35 36 37 37 38 39 39 39 39 39 40 40 40 40 40
7 9 1 11 17 14 17 15 5 15 13 17 4 15 10 4 9 11 8 2 6 11 13 15 18 20 24 27 30 31 32 32 33 35 36 35 35 37 38 38 38 38 38 38 39 41 42 43 44
8 8 7 7 11 12 14 16 18 21 21 10 24 17 7 10 10 9 4 8 11 14 16 20 25 30 35 38 38 37 36 34 34 32 32 33 35 36 37 39 41 42 42 42 42 42 44 44 45
8 7 10 18 13 11 10 10 29 12 10 12 11 7 12 16 17 14 10 12 16 19 23 27 32 36 38 40 35 32 32 31 31 31 32 32 33 33 35 37 39 41 43 44 44 44 45 46 46
6 4 10 9 12 8 6 7 8 16 11 3 5 6 11 29 19 11 13 19 14 23 28 31 33 30 27 29 35 35 31 31 31 32 32 32 33 34 39 39 40 41 43 45 46 48 48 48 49
10 4 8 10 12 8 5 2 4 6 7 1 3 4 12 16 13 11 14 8 15 25 33 28 27 28 29 27 31 31 32 30 33 32 30 32 33 35 38 40 42 44 44 43 41 44 47 49 47
18 7 11 13 14 10 8 8 6 4 11 8 5 2 12 11 7 4 10 19 18 24 27 29 29 30 29 30 29 28 28 27 27 36 33 32 31 33 34 35 37 41 43 45 44 48 49 48 50
15 7 11 12 5 9 6 4 3 8 11 17 16 20 15 11 11 14 11 16 20 22 28 30 30 31 31 29 28 27 27 25 27 31 29 30 32 34 37 41 44 47 48 50 52 54 56 58 58
11 12 10 1 3 5 4 9 9 21 8 10 15 14 18 14 16 19 18 25 25 26 27 31 30 30 31 29 27 25 24 25 27 32 33 36 40 43 46 50 53 55 55 59 60 62 65 65 64
11 6 8 6 7 5 13 16 13 27 24 25 16 20 16 19 27 31 27 25 23 24 27 29 32 31 31 30 26 25 25 27 29 34 38 41 45 48 52 54 57 59 61 64 66 70 71 71 70
13 17 9 5 5 6 9 11 3 12 29 23 22 21 22 25 24 24 23 23 24 27 29 30 33 32 31 29 26 27 28 31 33 38 41 46 48 53 58 61 64 66 67 69 72 75 76 77 76
12 4 8 3 7 5 15 14 21 36 27 22 31 26 27 30 35 27 29 28 25 30 32 31 32 33 30 30 30 31 36 35 39 41 46 51 55 60 63 64 64 66 70 73 76 78 79 79 79
3 3 6 2 11 3 6 17 16 33 31 31 34 35 36 32 30 27 33 28 31 31 32 34 32 33 33 33 33 35 37 41 42 48 52 56 59 61 65 66 69 73 75 77 79 79 80 80 83
1 6 9 5 3 6 11 18 9 20 27 34 38 41 37 35 38 33 35 31 32 33 34 33 34 37 34 36 37 36 37 43 49 52 56 62 64 63 69 72 77 77 75 75 74 74 73 80 83
8 8 11 13 4 5 18 44 35 51 56 44 36 35 43 41 37 35 39 37 33 33 33 33 35 37 39 39 41 42 43 46 51 52 60 61 66 72 76 80 82 78 77 75 73 74 76 74 71
12 13 17 14 7 13 16 36 39 42 44 38 39 37 36 38 31 32 45 39 36 33 32 34 34 37 40 44 47 50 55 56 60 61 61 56 71 78 82 86 84 80 77 75 72 70 70 66 70
12 14 13 11 5 12 18 44 33 3 5 11 12 32 28 27 28 37 41 38 36 29 31 36 34 40 41 45 49 50 52 58 62 61 55 69 77 80 82 84 80 78 80 77 72 67 67 66 58
2 5 8 11 23 10 19 17 6 1 6 9 13 9 15 15 26 31 39 37 31 32 33 35 40 39 42 45 49 53 59 64 67 68 75 77 76 79 81 75 73 78 69 75 72 63 61 65 59
8 11 12 16 12 6 12 9 13 7 5 1 6 7 11 15 19 26 28 31 32 30 40 42 40 39 38 44 53 56 60 63 65 70 74 76 77 76 72 64 76 72 70 69 68 64 66 66 66
6 10 8 5 5 11 5 5 15 1 3 9 8 1 6 13 17 20 24 27 26 33 38 41 36 36 38 45 51 55 58 62 69 72 78 79 81 70 70 75 66 67 66 68 69 75 67 65 70
18 8 4 1 3 5 5 6 12 4 3 6 11 11 8 7 10 13 16 21 28 35 37 34 29 32 42 48 51 54 60 67 71 77 77 81 76 76 69 64 64 64 69 69 68 72 72 74 72
7 8 8 10 7 9 6 4 20 13 9 8 12 13 12 16 10 10 13 18 22 23 16 20 26 40 47 49 53 59 63 67 71 73 74 75 79 72 69 67 74 70 71 73 74 73 74 72 71
6 3 7 7 6 10 2 12 12 6 8 9 8 11 15 20 17 10 14 20 22 22 27 33 37 42 46 52 57 61 64 66 69 70 73 73 71 69 71 71 75 78 73 70 71 77 76 76 74
3 2 2 1 4 5 8 13 14 9 12 16 15 14 16 9 15 21 23 21 23 25 26 30 37 43 50 55 60 62 63 65 67 71 69 66 68 70 73 81 72 72 75 74 73 72 71 79 77
2 3 5 3 12 13 10 9 11 6 2 8 13 8 8 16 26 27 23 20 17 19 25 32 39 47 50 54 58 62 66 69 71 73 69 70 70 76 78 74 74 75 79 77 77 80 78 77 78
1 2 5 1 5 7 10 12 9 7 10 10 2 2 16 26 26 15 11 12 14 23 30 38 44 47 51 55 62 67 72 73 71 73 74 76 82 79 79 87 81 70 73 71 71 74 76 71 73
1 3 9 7 10 9 5 21 4 10 17 10 2 9 22 17 10 10 11 14 20 29 38 43 44 47 53 61 66 70 71 70 73 76 80 80 82 82 73 72 74 69 70 70 69 69 67 69 71
Wind_Direction_850mb
294 315 181 320 247 58 6 157 320 68 74 61 57 73 95 45 14 76 200 35 73 36 55 22 33 18 25 11 3 1 9 3 13 338 324 330 334 335 330 330 328 325 322 320 320 319 318 317 315
304 343 17 271 141 118 197 166 69 61 85 109 51 84 42 77 64 71 157 50 84 97 44 9 14 7 12 18 13 2 351 342 334 334 332 327 323 320 319 319 316 315 314 312 311 309 310 308 308
28 31 305 270 54 77 107 86 84 78 59 39 117 65 61 31 40 90 88 97 82 58 26 22 17 2 351 352 351 349 339 328 321 317 315 312 311 312 313 313 313 310 308 307 307 307 305 303 302
289 291 266 357 97 30 77 51 107 125 103 67 103 91 79 69 141 155 143 124 67 28 2 348 332 342 337 335 335 331 324 320 315 311 310 309 309 310 311 312 314 311 308 307 307 304 302 301 300
350 273 90 60 70 74 51 59 37 82 73 34 338 112 88 94 138 146 157 187 346 354 329 320 328 333 328 327 324 319 314 312 311 311 311 313 316 317 318 319 318 316 314 312 310 309 308 306 304
275 292 115 138 96 90 77 22 60 65 103 37 96 109 125 196 168 176 225 295 329 323 320 323 326 324 323 322 323 322 322 319 317 318 317 315 315 315 314 315 316 316 315 315 313 310 308 306 304
314 2 70 97 114 118 70 2 25 29 103 53 359 97 167 197 205 232 272 324 323 319 315 314 318 324 328 330 333 330 325 321 319 319 319 321 322 317 315 315 315 314 313 312 311 310 309 307 306
360 49 81 93 177 77 48 66 11 28 68 54 22 173 184 213 214 247 292 313 326 312 303 311 319 324 327 328 326 327 326 322 318 315 315 318 319 321 319 318 316 314 313 312 311 309 307 306 305
8 77 106 17 29 105 149 229 44 47 113 84 292 254 181 187 209 240 276 327 284 290 303 309 313 321 331 329 331 332 330 330 324 318 324 320 320 315 320 321 323 322 323 320 321 315 315 313 311
36 48 38 9 4 68 68 331 72 231 162 180 147 219 202 187 199 229 242 237 279 295 306 320 321 321 327 327 328 323 319 321 314 317 327 328 328 327 329 330 327 328 327 324 319 320 318 316 310
11 62 129 45 14 13 40 227 218 269 237 231 209 189 181 195 203 223 239 269 274 291 304 313 319 322 326 325 323 321 317 321 317 321 332 334 331 331 330 329 328 326 323 319 317 316 316 313 310
101 43 51 32 328 334 340 325 260 236 271 219 184 178 203 207 227 224 225 244 271 290 300 310 319 322 326 327 325 324 325 328 329 326 330 330 330 330 329 329 327 325 321 318 318 316 313 309 307
88 150 74 76 52 353 314 271 274 264 247 250 234 223 210 213 224 243 245 265 279 286 297 307 314 322 324 323 323 322 323 324 322 320 324 325 326 327 326 326 325 324 321 320 319 318 316 313 309
108 102 109 75 14 316 322 281 308 281 220 243 226 228 217 221 229 239 264 262 273 287 299 306 310 314 315 316 318 317 316 317 319 319 322 321 323 324 325 325 325 324 321 320 318 318 315 311 308
150 87 183 124 347 331 334 277 228 247 215 221 224 232 225 230 238 242 239 263 277 287 293 302 307 310 312 312 312 314 315 318 318 319 319 319 322 323 323 321 321 320 317 316 315 314 311 307 305
213 282 299 75 345 191 35 273 341 199 203 226 230 227 226 235 249 249 259 263 275 284 293 300 305 306 309 307 312 316 318 318 319 318 318 318 320 320 321 322 323 323 319 318 317 315 312 307 305
47 298 339 231 138 299 212 273 206 206 218 229 233 234 226 231 240 258 260 264 273 282 292 298 303 304 307 310 311 313 318 316 316 319 317 317 317 320 322 322 322 321 316 314 313 309 305 303 303
330 328 323 301 87 320 273 266 269 263 247 230 234 245 234 228 237 263 266 268 272 283 291 295 299 304 307 310 312 313 316 311 314 319 319 320 318 320 320 320 319 317 314 313 311 307 308 305 304
292 300 294 293 44 340 260 274 284 277 267 220 230 237 250 230 239 248 257 271 271 282 289 293 300 298 305 310 310 313 315 319 323 324 324 313 315 317 320 321 321 319 316 313 310 308 307 302 301
285 298 302 315 73 346 305 298 289 348 325 323 304 223 245 239 230 247 260 277 275 280 283 291 294 297 306 309 311 314 318 319 320 322 311 311 317 319 319 321 317 314 313 312 312 308 305 302 304
282 310 354 288 322 259 300 286 160 233 311 301 308 274 264 261 243 249 265 282 284 290 295 283 296 300 305 307 310 315 317 317 321 318 318 320 317 317 317 315 310 309 306 305 307 305 303 303 298
306 31 338 313 4 307 30 285 316 158 191 176 346 300 264 256 259 246 257 273 282 282 279 288 296 304 313 313 316 320 320 319 318 317 317 316 317 313 317 303 305 304 301 301 301 303 300 301 300
303 340 302 358 348 358 17 53 272 109 143 95 104 100 291 272 257 267 270 264 269 269 275 290 300 306 310 314 315 317 315 315 316 316 317 317 316 315 310 311 306 303 301 298 298 300 297 293 294
303 328 230 290 201 2 251 91 284 32 23 121 124 88 9 345 284 268 271 273 276 286 299 310 313 313 309 312 316 317 317 318 317 318 317 318 315 314 312 311 310 302 299 300 298 297 293 292 291
295 13 341 356 359 233 303 343 250 284 59 69 71 57 6 358 8 342 317 317 307 320 306 295 298 299 308 315 316 317 318 316 317 319 318 316 315 313 313 308 307 305 302 301 299 299 298 293 288
352 96 123 286 298 280 311 231 257 130 103 65 68 48 47 42 36 3 327 301 294 284 285 294 302 311 319 320 320 319 320 320 321 321 317 315 314 312 311 309 306 304 304 304 303 301 298 296 291
337 67 40 245 85 40 237 280 299 53 43 72 73 66 74 23 350 348 320 298 296 305 310 317 321 322 322 322 322 324 325 326 323 322 319 315 313 312 309 307 310 308 309 307 306 302 299 296 296
94 326 34 343 334 310 282 274 245 275 56 343 63 40 3 330 333 332 319 319 328 322 317 322 324 323 324 325 328 330 330 328 325 320 318 312 312 308 311 310 308 304 304 306 304 303 303 301 297
47 34 40 125 156 226 298 257 226 180 180 167 269 337 304 322 324 330 339 324 318 310 325 328 328 329 332 333 334 332 331 329 326 325 323 319 317 315 309 307 313 313 310 311 307 304 301 302 301
317 201 188 145 259 228 195 272 4 175 171 150 347 296 313 314 332 333 308 317 318 329 334 335 336 338 338 336 332 333 332 331 331 331 328 328 323 323 322 317 314 317 315 315 315 314 313 308 304